CDT,Max TemperatureF,Mean TemperatureF,Min TemperatureF,Max Dew PointF,MeanDew PointF,Min DewpointF,Max Humidity, Mean Humidity, Min Humidity, Max Sea Level PressureIn, Mean Sea Level PressureIn, Min Sea Level PressureIn, Max VisibilityMiles, Mean VisibilityMiles, Min VisibilityMiles, Max Wind SpeedMPH, Mean Wind SpeedMPH, Max Gust SpeedMPH,PrecipitationIn, CloudCover, Events, WindDirDegrees
2013-7-1,79,64,49,50,49,46,93,63,33,30.21,30.18,30.15,10,10,10,12,4,20,0.00,0,,37
2013-7-2,77,63,49,49,44,38,77,51,25,30.21,30.16,30.10,10,10,10,10,4,16,0.00,1,,110
2013-7-3,78,61,44,57,48,41,93,62,31,30.14,30.09,30.04,10,10,10,14,3,18,0.00,3,,177
2013-7-4,80,70,59,58,56,55,90,69,47,30.06,30.02,29.98,10,10,7,15,7,23,0.00,4,,215
2013-7-5,83,73,63,58,56,53,78,59,39,30.02,29.98,29.94,10,10,10,17,9,24,0.00,1,,213
2013-7-6,86,77,67,61,60,58,78,59,40,29.99,29.96,29.92,10,10,10,15,9,22,0.00,0,,212
2013-7-7,83,75,67,71,66,61,93,76,58,30.00,29.93,29.90,10,8,2,17,4,25,1.01,6,Rain-Thunderstorm,198
2013-7-8,83,74,64,70,65,63,100,78,55,30.01,29.97,29.90,10,8,1,12,4,14,0.19,5,Rain-Thunderstorm,338
2013-7-9,76,71,65,70,67,63,100,87,74,30.04,29.88,29.77,10,7,0,25,7,33,0.39,6,Fog-Rain-Thunderstorm,216
2013-7-10,72,62,51,66,55,48,93,69,44,30.06,29.93,29.82,10,10,7,17,7,25,0.00,4,,306
2013-7-11,79,65,50,56,51,48,93,64,35,30.16,30.11,30.06,10,8,0,10,3,13,0.00,0,Fog,254
2013-7-12,80,67,53,59,55,51,93,68,42,30.15,30.10,30.05,10,10,9,17,7,24,0.00,0,,190
2013-7-13,82,73,64,59,57,53,73,59,45,30.17,30.12,30.07,10,10,10,14,7,20,0.00,1,,191
2013-7-14,83,71,58,64,59,55,93,70,46,30.26,30.22,30.18,10,10,8,16,5,21,0.00,1,,201
2013-7-15,87,75,62,67,64,61,93,69,45,30.33,30.28,30.25,10,9,6,13,3,16,0.00,2,,210
2013-7-16,90,81,71,71,69,67,93,70,47,30.27,30.24,30.20,10,9,4,16,7,25,T,1,,223
2013-7-17,90,80,69,70,67,65,97,71,44,30.27,30.22,30.15,10,10,5,18,7,25,0.00,1,,256
2013-7-18,90,80,69,72,67,66,90,69,47,30.14,29.97,29.77,10,10,9,24,10,37,0.02,2,,230
2013-7-19,86,71,56,70,62,54,87,63,39,29.84,29.74,29.68,10,10,10,23,10,30,T,3,Thunderstorm,270
2013-7-20,73,65,56,56,48,38,93,61,29,30.04,29.95,29.84,10,10,10,9,5,14,0.00,2,,354
2013-7-21,67,60,53,57,51,41,93,75,56,30.06,30.00,29.94,10,10,10,12,6,16,0.00,7,,130
2013-7-22,82,69,55,70,60,54,100,78,56,29.92,29.79,29.65,10,7,0,26,8,32,0.56,6,Fog-Rain-Thunderstorm,211
2013-7-23,66,56,45,53,47,42,96,70,44,30.06,29.93,29.79,10,10,2,14,5,23,0.00,3,,328
2013-7-24,71,56,41,53,46,41,100,71,41,30.12,30.07,30.04,10,7,0,14,3,18,0.00,4,Fog,272
2013-7-25,78,64,50,61,55,48,100,77,54,30.04,29.99,29.91,10,8,2,17,5,25,0.03,3,Rain-Thunderstorm,217
2013-7-26,70,58,46,61,56,42,100,89,77,30.01,29.92,29.86,10,9,2,16,5,26,0.16,7,Rain-Thunderstorm,241
2013-7-27,55,50,45,48,44,41,93,77,61,29.98,29.90,29.85,10,9,2,14,5,18,0.03,8,Rain,291
2013-7-28,59,52,45,52,47,43,93,83,72,30.05,29.92,29.86,10,9,2,18,7,24,0.01,8,Rain,313
2013-7-29,74,57,40,57,46,39,100,71,41,30.18,30.12,30.03,10,7,0,12,3,14,0.00,1,Fog,290
2013-7-30,70,61,52,60,57,50,100,82,63,30.20,30.16,30.09,10,8,2,12,3,15,0.33,7,Rain,208
2013-7-31,75,62,49,61,58,48,100,75,49,30.10,30.02,29.94,10,9,5,20,6,25,0.01,5,,263